Location: Blairvadach
(56.2780°N, 6.9720°W)
Time: 15:54:55
(UTC+01:00)

OTV 5 (USA 277) - Pass Details

Date: 29 April 2019
Orbit: 310 x 325 km, 54.5° (Epoch: 08 May)

Event Time Altitude Azimuth Distance (km) Brightness Sun altitude
Rises 00:40:49 0° 277° (W) 2,039 ? -18.8°
Reaches altitude 10° 00:42:51 10° 268° (W) 1,209 ? -18.9°
Enters shadow 00:42:56 11° 267° (W) 1,172 ? -18.9°
